Flag for Russia Weather past 2 weeks in Samara, Russia

Now
21 °F

Light snow. Mostly cloudy.


Feels Like: 10 °F
Forecast: 19 / 29 °F
Wind: 10 mph from Northwest

Location: Samara

Current Time: Oct 26, 2014 at 1:59:16 PM

Latest Report: Oct 26, 2014 at 1:30 PM


Visibility: N/A

Pressure: 30.57 "Hg

Humidity: 63%

Dew point: 10 °F

Location of SamaraLocation

Historic Weather in Samara — Graph

°F

Samara temperature yesterday

Maximum temperature yesterday: 23 °F (at 1:00 PM)
Minimum temperature yesterday: 16 °F (at 1:00 AM)
Average temperature yesterday: 19 °F

Past Weeks' High & Low Weather Summary

 TemperatureHumidityPressure
High68 °F (Oct 11, 2:30 PM)94% (Oct 12, 9:00 AM)30.57 "Hg (Oct 12, 9:00 AM)
Low14 °F (Oct 23, 8:00 PM)24% (Oct 11, 2:30 PM)29.30 "Hg (Oct 22, 1:30 AM)
Average38 °F70%29.87 "Hg
* Reported Oct 11 1:00 PM — Oct 26 1:00 PM, Samara, Weather by CustomWeather, © 2014

Note: Actual official high and low records may vary slightly from our data, if they occured in-between our weather recording intervals... More about our weather records

Advertising

Samara weather history for previous 24 hours

 ConditionsComfort  
Time TempWeatherWind HumidityBarometerVisibility
1:00 PM
Oct 26
21 °FMostly cloudy.10 mph58%30.57 "HgN/A
12:30 PM21 °FMostly cloudy.10 mph63%30.57 "HgN/A
12:00 PM21 °FLight snow. Mostly cloudy.10 mph58%30.57 "HgN/A
11:30 AM21 °FLight snow. Mostly cloudy.10 mph63%30.57 "HgN/A
11:00 AM19 °FSnow flurries. Mostly cloudy.10 mph68%30.57 "Hg2 mi
10:30 AM19 °FLight snow. More clouds than sun.8 mph68%30.57 "HgN/A
10:00 AM19 °FLight snow. More clouds than sun.8 mph63%30.57 "HgN/A
9:30 AM19 °FLight snow. More clouds than sun.8 mph63%30.57 "HgN/A
9:00 AM19 °FLight snow. Mostly cloudy.13 mph63%30.54 "HgN/A
8:30 AM19 °FLight snow. Mostly cloudy.10 mph63%30.54 "HgN/A
8:00 AM19 °FLight snow. Mostly cloudy.10 mph63%30.54 "HgN/A
7:30 AM19 °FLight snow. Mostly cloudy.10 mph63%30.51 "HgN/A
7:00 AM19 °FMostly cloudy.10 mph63%30.51 "HgN/A
6:30 AM19 °FMostly cloudy.8 mph63%30.51 "HgN/A
6:00 AM19 °FLight snow. Mostly cloudy.8 mph63%30.51 "HgN/A
5:30 AM19 °FLight snow. Mostly cloudy.8 mph68%30.48 "HgN/A
5:00 AM19 °FLight snow. Mostly cloudy.8 mph63%30.48 "HgN/A
4:30 AM19 °FLight snow. Mostly cloudy.8 mph63%30.48 "HgN/A
4:00 AM19 °FLight snow. Mostly cloudy.8 mph68%30.45 "HgN/A
3:30 AM19 °FMostly cloudy.8 mph68%30.45 "HgN/A
3:00 AM19 °FMostly cloudy.10 mph68%30.45 "HgN/A
2:30 AM19 °FLight snow. Mostly cloudy.8 mph73%30.45 "HgN/A
2:00 AM19 °FLight snow. Mostly cloudy.10 mph73%30.45 "HgN/A
1:30 AM19 °FLight snow. Mostly cloudy.10 mph73%30.45 "HgN/A
1:00 AM19 °FLight snow. Mostly cloudy.8 mph73%30.42 "HgN/A
12:30 AM19 °FLight snow. Mostly cloudy.10 mph73%30.42 "HgN/A
12:00 AM19 °FLight snow. Mostly cloudy.13 mph73%30.42 "HgN/A
11:30 PM
Oct 25
19 °FLight snow. Mostly cloudy.10 mph73%30.42 "HgN/A
11:00 PM19 °FLight snow. Mostly cloudy.10 mph73%30.42 "HgN/A
10:30 PM21 °FLight snow. Mostly cloudy.10 mph68%30.39 "HgN/A
10:00 PM21 °FLight snow. Mostly cloudy.13 mph68%30.39 "HgN/A
9:30 PM21 °FLight snow. Mostly cloudy.13 mph68%30.39 "HgN/A
9:00 PM21 °FLight snow. Mostly cloudy.13 mph68%30.39 "HgN/A
8:30 PM21 °FLight snow. Mostly cloudy.10 mph68%30.39 "Hg2 mi
8:00 PM21 °FLight snow. Mostly cloudy.10 mph68%30.39 "Hg2 mi
7:30 PM21 °FLight snow. Mostly cloudy.13 mph68%30.36 "Hg2 mi
7:00 PM21 °FLight snow. Mostly cloudy.15 mph68%30.36 "Hg2 mi
6:30 PM21 °FLight snow. Mostly cloudy.13 mph68%30.36 "Hg2 mi
6:00 PM21 °FLight snow. Mostly cloudy.15 mph63%30.36 "Hg2 mi
5:30 PM21 °FSnow flurries. Mostly cloudy.15 mph63%30.33 "Hg2 mi
5:00 PM21 °FSnow flurries. Mostly cloudy.13 mph68%30.33 "Hg3 mi
4:30 PM21 °FSnow flurries. Mostly cloudy.15 mph68%30.33 "Hg2 mi
4:00 PM23 °FMostly cloudy.15 mph58%30.33 "HgN/A
3:30 PM23 °FSnow flurries. Mostly cloudy.13 mph63%30.30 "Hg3 mi
3:00 PM23 °FMostly cloudy.13 mph58%30.30 "HgN/A
2:30 PM23 °FSnow flurries. Mostly cloudy.15 mph58%30.30 "Hg3 mi
2:00 PM23 °FSnow flurries. Mostly cloudy.13 mph63%30.30 "Hg1 mi
1:30 PM23 °FSnow flurries. Mostly cloudy.13 mph68%30.30 "Hg1 mi
1:00 PM23 °FLight snow. Mostly cloudy.13 mph63%30.30 "Hg2 mi
Weather by CustomWeather, © 2014

See weather overviewHow to use our weather pages